sat.trackr.live / text

‹ back to catalog

STARLINK-4455

NORAD 53500 · 2022-099AM

PAYLOAD ACTIVE UNKNOWN

§ Identity

Operator
Country
US
Launch date
2022-08-12
Launch site
AFWTR
Launch vehicle
Mass (kg)
RCS (m²)

Purposes: comms

External: N2YO · Heavens-Above · Gunter

§ Orbital elements

Epoch: 2026-05-25T04:00:03.998880Z

Period
93.37 min
Inclination
97.6050°
Eccentricity
0.0001236
Mean motion
15.42205209 rev/d
Perigee alt
438.8 km
Apogee alt
440.4 km
Semi-major
6,817.7 km
B*
1.3083e-2
RAAN
268.2261°
Arg perigee
60.0454°
Mean anomaly
287.5531°
Rev number
582

§ Raw data

STARLINK-44551 53500U 22099AM  26145.16671295  .00607054  00000+0  13083-1 0  99972 53500  97.6050 268.2261 0001236  60.0454 287.5531 15.42205209  5826

JSON: /api/v1/satellites/53500 · /tle

For live sub-satellite position, see the globe view (requires WebGL).

§ Visibility from observer

Set your observer location to see the next 7 days of passes ≥ 10°. The values pass through the URL so the page stays shareable.

No JS? Fill the form by hand. The geolocation button needs JavaScript.